Regional Weather Roundup
Issued by NWS

Home | Current Version | Previous Version | Text Only | Print | Product List | Glossary On
Versions: 1 2 3 4 5 6 7 8 9 10 11 12 13 14 15 16 17 18 19 20 21 22 23 24 25 26 27 28 29 30 31 32 33 34 35 36 37 38 39 40 41 42 43 44 45 46 47 48 49 50
000
ASUS43 KMPX 271610
RWRMN
WEATHER ROUNDUP FOR MINNESOTA
NATIONAL WEATHER SERVICE TWIN CITIES/CHANHASSEN MN
1000 AM CST THU NOV 27 2014


NOTE: "FAIR" INDICATES FEW OR NO CLOUDS BELOW 12,000 FEET WITH NO
SIGNIFICANT WEATHER AND/OR OBSTRUCTIONS TO VISIBILITY. N/A MEANS
CURRENT SKY AND/OR WEATHER CONDITIONS ARE NOT AVAILABLE.

MNZ060>063-068>070-271700-
   Twin Cities Metro

CITY           SKY/WX    TMP DP  RH WIND       PRES   REMARKS
TWIN CITIES    SUNNY      2  -5  72 NW5       30.53R WCI  -8
ST PAUL        SUNNY      2  -5  72 NW7       30.55R WCI -11
CRYSTAL        SUNNY      3  -5  69 NW7       30.52S WCI  -9
BLAINE         SUNNY      3  -4  72 NW6       30.51R WCI  -8
LAKEVILLE      SUNNY      0  -8  71 W5        30.51S WCI -10
EDEN PRAIRIE   SUNNY      2  -5  72 NW8       30.52R WCI -12
SOUTH ST PAUL  SUNNY      3  -5  68 CALM      30.53R
LAKE ELMO      FAIR       3  -4  72 NW6       30.52R WCI  -8
$$
MNZ001>005-007-008-013>017-022>024-027-028-271700-
   Northwest Minnesota

CITY           SKY/WX    TMP DP  RH WIND       PRES   REMARKS
BEMIDJI        MOSUNNY  -10 -15  79 CALM      30.43F
HALLOCK        SUNNY     -2  -8  78 S12       30.45S WCI -20
ROSEAU         MOSUNNY   -6 -11  77 S6        30.44F WCI -18
WARROAD        MOSUNNY   -8 -13  77 S3        30.44F
THIEF RVR FALL SUNNY     -8  -8 100 S7        30.45F WCI -22
CROOKSTON      SUNNY     -4  -9  77 S8        30.50F WCI -19
FOSSTON        MOSUNNY   -8 -15  71 S5        30.46F WCI -19
DETROIT LAKES  SUNNY     -4  -8  84 CALM      30.46S
MOORHEAD       MOSUNNY   -6  -8  92 CALM      30.51F
PARK RAPIDS    MOSUNNY   -6  -9  86 CALM      30.44F
MAHNOMEN       FAIR      -8 -12  80 S3        30.46F
$$
MNZ006-009>011-018-025>026-271700-
   North Central Minnesota

CITY           SKY/WX    TMP DP  RH WIND       PRES   REMARKS
BAUDETTE       MOSUNNY  -10 -13  86 CALM      30.43F
FLAG ISLAND    MOSUNNY   -9 -13  84 CALM      30.43F
INTL FALLS     MOSUNNY   -8 -12  83 CALM      30.44S
WASKISH        MOSUNNY   -6  -9  84 CALM      30.44F
BIG FORK       MOSUNNY   -6 -11  77 CALM      30.43F HAZE
LONGVILLE      MOSUNNY   -4  -8  84 CALM      30.45S
GRAND RAPIDS   MOSUNNY   -8  -9  92 NW3       30.42S
CRANE LAKE     MOSUNNY   -9 -13  84 CALM      30.47S
ORR            MOSUNNY   -8 -13  77 CALM      30.40S
COOK           MOSUNNY   -9 -15  77 CALM      30.43S
WALKER         FAIR      -7 -12  80 CALM      30.44F
$$
MNZ012-019>021-037-271700-
   Northeast Minnesota

CITY           SKY/WX    TMP DP  RH WIND       PRES   REMARKS
DULUTH         SUNNY     -3 -10  72 NW13      30.39S WCI -22
ELY            SUNNY     -6  -9  84 CALM      30.40F
HIBBING        MOSUNNY   -3 -10  72 CALM      30.43S
EVELETH        SUNNY     -2  -8  78 CALM      30.43S
DULUTH HARBOR  SUNNY      1  -8  66 W3        30.51R
TWO HARBORS    SUNNY      5  -6  61 N6        30.40R WCI  -6
SILVER BAY     SUNNY      3  -8  60 NW6       30.40S WCI  -8
GRAND MARAIS     N/A      4  -9  55 N15G32    30.42R WCI -14
G MARAIS ARPRT SUNNY     -6 -13  71 N9        30.31R WCI -22
$$
MNZ029>031-032-039>041-046>048-054>057-064-271700-
   West Central Minnesota

CITY           SKY/WX    TMP DP  RH WIND       PRES   REMARKS
FERGUS FALLS   MOSUNNY   -6 -11  77 CALM      30.53F
WHEATON        MOSUNNY   -4  -9  77 CALM      30.52S
MORRIS         SUNNY     -6  -9  84 CALM      30.49S
ALEXANDRIA     MOSUNNY   -3  -7  82 N3        30.47S
ELBOW LAKE     FAIR      -6 -10  83 CALM      30.48S FOG
WADENA         MOSUNNY   -4  -8  84 SW5       30.46S WCI -15
GLENWOOD       SUNNY     -2  -8  78 CALM      30.48S
APPLETON       SUNNY     -2  -9  71 NE3       30.52S
BENSON         SUNNY     -6  -9  84 CALM      30.51R
ORTONVILLE     SUNNY     -4  -9  77 CALM      30.50S
MADISON        SUNNY     -2  -8  78 CALM      30.52F
WILLMAR        FAIR      -2  -8  78 CALM      30.51S
$$
MNZ033>034-036-042>043-049>051-058-059-271700-
   Central Minnesota

CITY           SKY/WX    TMP DP  RH WIND       PRES   REMARKS
ST CLOUD       SUNNY      0  -8  69 NW5       30.51S WCI -10
SAUK CENTRE    FAIR      -3  -9  77 W3        30.49S
PAYNESVILLE    SUNNY     -5 -10  79 CALM      30.51R
AITKIN         SUNNY      0  -8  71 CALM      30.45F
PINE RIVER     SUNNY     -6  -9  84 CALM      30.48F
BRAINERD       SUNNY     -4  -7  87 CALM      30.48S
STAPLES        MOSUNNY   -6  -9  84 CALM      30.47S
LONG PRAIRIE   FAIR      -4  -8  84 NW3       30.48S
LITTLE FALLS   SUNNY     -2  -9  71 CALM      30.50F
LITCHFIELD     SUNNY      0  -6  78 NW3       30.52R
BUFFALO        SUNNY      0  -6  74 NW3       30.53S
MAPLE LAKE     SUNNY      0  -5  78 NW3       30.52S
$$
MNZ037-044-045-052-053-271700-
   East Central Minnesota

CITY           SKY/WX    TMP DP  RH WIND       PRES   REMARKS
PRINCETON      SUNNY      1  -6  71 CALM      30.50F
MORA             N/A    N/A N/A N/A MISG        N/A
CAMBRIDGE      SUNNY      1  -8  66 CALM      30.50S
RUSH CITY      SUNNY      0  -7  70 NW3       30.51R
MOOSE LAKE     SUNNY      0  -8  71 NW5       30.46S WCI -10
HINCKLEY       FAIR       1  -4  78 CALM      30.48S
CLOQUET        SUNNY     -2  -9  71 NW8       30.43S WCI -17
MCGREGOR       SUNNY      0  -6  78 W3        30.47S
$$
MNZ071>073-080-081-089-090-097-098-271700-
   Southwest Minnesota

CITY           SKY/WX    TMP DP  RH WIND       PRES   REMARKS
MONTEVIDEO     SUNNY      1  -8  66 CALM      30.53S
GRANITE FALLS  SUNNY     -6 -10  80 CALM      30.54S
CANBY          SUNNY     -3  -8  79 CALM      30.51F
MARSHALL       SUNNY     -6 -11  77 CALM      30.51R
REDWOOD FALLS  SUNNY     -4  -9  79 NW3       30.53S
OLIVIA         SUNNY      0  -8  71 CALM      30.51F
PIPESTONE      SUNNY      1  -9  60 SE3       30.44S
WINDOM         SUNNY     -6  -9  84 CALM      30.49R
WORTHINGTON    SUNNY     -4  -8  84 CALM      30.47S
JACKSON        SUNNY     -4  -9  77 NW5       30.48S WCI -15
TRACY          SUNNY     -4  -8  81 NW3       30.50R
SLAYTON        SUNNY     -3  -8  77 CALM      30.47S
$$
MNZ065>067-074>077-082>085-091>093-271700-
   South Central Minnesota

CITY           SKY/WX    TMP DP  RH WIND       PRES   REMARKS
MANKATO        SUNNY     -6 -11  77 NW3       30.52R
NEW ULM        SUNNY     -8 -11  84 CALM      30.51F
ST JAMES       MOSUNNY   -6 -11  77 W5        30.54R HAZE    WCI -17
FAIRMONT       SUNNY     -4  -9  77 NW7       30.50S WCI -18
GLENCOE        SUNNY     -1  -6  78 NW3       30.52S
FARIBAULT      SUNNY      0  -8  71 NW6       30.50S WCI -12
OWATONNA       SUNNY     -8 -13  77 CALM      30.50R
WASECA         SUNNY     -6 -13  71 CALM      30.53R
ALBERT LEA     SUNNY     -6 -11  77 W3        30.49R
$$
MNZ078>079-086>088-094>096-271700-
   Southeast Minnesota

CITY           SKY/WX    TMP DP  RH WIND       PRES   REMARKS
ROCHESTER      SUNNY     -2  -6  83 NW13      30.46R WCI -20
RED WING         N/A      5  -6  61 NW6       30.51R WCI  -6
STANTON        SUNNY     -1  -6  79 W3        30.52R
DODGE CENTER   MOSUNNY   -2  -6  84 NW8       30.46S WCI -17
WINONA         SUNNY     10   3  72 NW10      30.51R WCI  -3
AUSTIN         SUNNY     -2  -8  78 NW9       30.48R WCI -18
PRESTON        SUNNY      2  -4  77 NW10      30.45R WCI -14
$$
ABBREVIATIONS USED IN REMARKS
   TC - TEMPERATURES IN CELSIUS
  WCI - WIND CHILL INDEX
   HX - HEAT INDEX
  VSB - VISIBILITY
$$


USA.gov is the U.S. government's official web portal to all federal, state and local government web resources and services.